contact:dominique.lefevre@mio.osupytheas.fr, maurice.libes@osupytheas.fr, didier.mallarino@osupytheas.fr
Project:EMSO http://www.emso-fr.org/EMSO-France
Depth: 2436.0 m
Title:EMSO Ligure Ouest : Data MII capteur OXYGEN
DateTime,Latitude,Longitude,Optode-Type,Optode_Serial,Oxygen,Saturation_Oxygen,Temperature
DateTime,Latitude,Longitude,Optode-Type,Optode_Serial,µmol.l-1,%,degC
2019-06-27T00:00:50,42.805,6.029,4330,1995,191.952,58.710,13.294
2019-06-27T00:03:50,42.805,6.029,4330,1995,191.920,58.703,13.296
2019-06-27T00:06:50,42.805,6.029,4330,1995,192.049,58.742,13.296
2019-06-27T00:09:50,42.805,6.029,4330,1995,192.155,58.773,13.295
2019-06-27T00:12:50,42.805,6.029,4330,1995,191.902,58.704,13.301
2019-06-27T00:15:50,42.805,6.029,4330,1995,191.998,58.727,13.297
2019-06-27T00:18:50,42.805,6.029,4330,1995,192.069,58.747,13.295
2019-06-27T00:21:50,42.805,6.029,4330,1995,192.064,58.746,13.296
2019-06-27T00:24:50,42.805,6.029,4330,1995,192.079,58.751,13.296
2019-06-27T00:27:50,42.805,6.029,4330,1995,191.947,58.712,13.297
2019-06-27T00:30:50,42.805,6.029,4330,1995,192.042,58.737,13.294
2019-06-27T00:33:50,42.805,6.029,4330,1995,191.957,58.718,13.299
2019-06-27T00:36:50,42.805,6.029,4330,1995,191.945,58.711,13.297
2019-06-27T00:39:50,42.805,6.029,4330,1995,192.061,58.745,13.296
2019-06-27T00:42:50,42.805,6.029,4330,1995,192.146,58.770,13.295
2019-06-27T00:45:50,42.805,6.029,4330,1995,192.223,58.795,13.296
2019-06-27T00:48:50,42.805,6.029,4330,1995,192.179,58.780,13.295
2019-06-27T00:51:50,42.805,6.029,4330,1995,192.254,58.802,13.294
2019-06-27T00:54:50,42.805,6.029,4330,1995,192.230,58.796,13.295
2019-06-27T00:57:50,42.805,6.029,4330,1995,192.275,58.810,13.295
2019-06-27T01:00:50,42.805,6.029,4330,1995,192.323,58.825,13.295
2019-06-27T01:03:50,42.805,6.029,4330,1995,192.326,58.823,13.294
2019-06-27T01:06:50,42.805,6.029,4330,1995,192.293,58.813,13.294
2019-06-27T01:09:50,42.805,6.029,4330,1995,192.297,58.816,13.295
2019-06-27T01:12:50,42.805,6.029,4330,1995,192.357,58.833,13.294
2019-06-27T01:15:50,42.805,6.029,4330,1995,192.420,58.852,13.293
2019-06-27T01:18:50,42.805,6.029,4330,1995,192.362,58.834,13.293
2019-06-27T01:21:50,42.805,6.029,4330,1995,192.549,58.892,13.294
2019-06-27T01:24:50,42.805,6.029,4330,1995,192.519,58.881,13.293
2019-06-27T01:27:50,42.805,6.029,4330,1995,192.632,58.918,13.294
2019-06-27T01:30:50,42.805,6.029,4330,1995,192.698,58.937,13.294
2019-06-27T01:33:50,42.805,6.029,4330,1995,192.680,58.930,13.292
2019-06-27T01:36:50,42.805,6.029,4330,1995,192.746,58.949,13.292
2019-06-27T01:39:50,42.805,6.029,4330,1995,192.699,58.936,13.293
2019-06-27T01:42:50,42.805,6.029,4330,1995,192.773,58.958,13.292
2019-06-27T01:45:50,42.805,6.029,4330,1995,192.721,58.941,13.291
2019-06-27T01:48:50,42.805,6.029,4330,1995,192.725,58.943,13.292
2019-06-27T01:51:50,42.805,6.029,4330,1995,192.796,58.965,13.292
2019-06-27T01:54:50,42.805,6.029,4330,1995,192.821,58.972,13.291
2019-06-27T01:57:50,42.805,6.029,4330,1995,192.947,59.011,13.292
2019-06-27T02:00:50,42.805,6.029,4330,1995,192.919,59.002,13.291
2019-06-27T02:03:50,42.805,6.029,4330,1995,192.938,59.009,13.292
2019-06-27T02:06:50,42.805,6.029,4330,1995,193.043,59.040,13.292
2019-06-27T02:09:50,42.805,6.029,4330,1995,193.004,59.028,13.292
2019-06-27T02:12:50,42.805,6.029,4330,1995,193.032,59.037,13.292
2019-06-27T02:15:50,42.805,6.029,4330,1995,193.051,59.042,13.292
2019-06-27T02:18:50,42.805,6.029,4330,1995,193.108,59.060,13.292
2019-06-27T02:21:50,42.805,6.029,4330,1995,193.130,59.068,13.292
2019-06-27T02:24:50,42.805,6.029,4330,1995,193.138,59.070,13.293
2019-06-27T02:30:50,42.805,6.029,4330,1995,193.035,59.034,13.289
2019-06-27T02:33:50,42.805,6.029,4330,1995,193.038,59.035,13.289
2019-06-27T02:36:50,42.805,6.029,4330,1995,193.154,59.073,13.291
2019-06-27T02:39:50,42.805,6.029,4330,1995,193.262,59.106,13.291
2019-06-27T02:42:50,42.805,6.029,4330,1995,193.241,59.099,13.291
2019-06-27T02:45:50,42.805,6.029,4330,1995,193.238,59.098,13.291
2019-06-27T02:48:50,42.805,6.029,4330,1995,193.270,59.108,13.290
2019-06-27T02:51:50,42.805,6.029,4330,1995,193.260,59.106,13.291
2019-06-27T02:54:50,42.805,6.029,4330,1995,193.298,59.117,13.291
2019-06-27T02:57:50,42.805,6.029,4330,1995,193.330,59.126,13.290
2019-06-27T03:00:50,42.805,6.029,4330,1995,193.231,59.096,13.291
2019-06-27T03:03:50,42.805,6.029,4330,1995,193.299,59.118,13.291
2019-06-27T03:06:50,42.805,6.029,4330,1995,193.277,59.112,13.292
2019-06-27T03:09:50,42.805,6.029,4330,1995,193.349,59.133,13.291
2019-06-27T03:12:50,42.805,6.029,4330,1995,193.327,59.128,13.292
2019-06-27T03:15:50,42.805,6.029,4330,1995,193.384,59.144,13.291
2019-06-27T03:18:50,42.805,6.029,4330,1995,193.383,59.144,13.292
2019-06-27T03:21:50,42.805,6.029,4330,1995,193.352,59.135,13.292
2019-06-27T03:24:50,42.805,6.029,4330,1995,193.339,59.131,13.292
2019-06-27T03:27:50,42.805,6.029,4330,1995,193.391,59.147,13.292
2019-06-27T03:30:50,42.805,6.029,4330,1995,193.379,59.143,13.292
2019-06-27T03:33:50,42.805,6.029,4330,1995,193.369,59.139,13.291
2019-06-27T03:36:50,42.805,6.029,4330,1995,193.356,59.137,13.292
2019-06-27T03:39:50,42.805,6.029,4330,1995,193.343,59.131,13.291
2019-06-27T03:42:50,42.805,6.029,4330,1995,193.381,59.144,13.292
2019-06-27T03:45:50,42.805,6.029,4330,1995,193.473,59.173,13.293
2019-06-27T03:48:50,42.805,6.029,4330,1995,193.426,59.158,13.292
2019-06-27T03:51:50,42.805,6.029,4330,1995,193.416,59.155,13.293
2019-06-27T03:54:50,42.805,6.029,4330,1995,193.376,59.143,13.292
2019-06-27T03:57:50,42.805,6.029,4330,1995,193.468,59.171,13.292
2019-06-27T04:00:50,42.805,6.029,4330,1995,193.465,59.171,13.293
2019-06-27T04:03:50,42.805,6.029,4330,1995,193.459,59.169,13.293
2019-06-27T04:06:50,42.805,6.029,4330,1995,193.412,59.155,13.293
2019-06-27T04:09:50,42.805,6.029,4330,1995,193.421,59.158,13.293
2019-06-27T04:12:50,42.805,6.029,4330,1995,193.394,59.148,13.292
2019-06-27T04:15:50,42.805,6.029,4330,1995,193.455,59.167,13.293
2019-06-27T04:18:50,42.805,6.029,4330,1995,193.434,59.161,13.293
2019-06-27T04:21:50,42.805,6.029,4330,1995,193.401,59.150,13.292
2019-06-27T04:24:50,42.805,6.029,4330,1995,193.482,59.175,13.292
2019-06-27T04:27:50,42.805,6.029,4330,1995,193.420,59.156,13.292
2019-06-27T04:30:50,42.805,6.029,4330,1995,193.424,59.157,13.292
2019-06-27T04:33:50,42.805,6.029,4330,1995,193.413,59.152,13.291
2019-06-27T04:36:50,42.805,6.029,4330,1995,193.398,59.147,13.291
2019-06-27T04:39:50,42.805,6.029,4330,1995,193.492,59.175,13.290
2019-06-27T04:42:50,42.805,6.029,4330,1995,193.551,59.194,13.290
2019-06-27T04:45:50,42.805,6.029,4330,1995,193.587,59.205,13.291
2019-06-27T04:48:50,42.805,6.029,4330,1995,193.566,59.196,13.289
2019-06-27T04:51:50,42.805,6.029,4330,1995,193.568,59.199,13.290
2019-06-27T04:54:50,42.805,6.029,4330,1995,193.638,59.219,13.289
2019-06-27T04:57:50,42.805,6.029,4330,1995,193.626,59.217,13.290
2019-06-27T05:00:50,42.805,6.029,4330,1995,193.555,59.194,13.290
2019-06-27T05:06:50,42.805,6.029,4330,1995,193.669,59.227,13.288
2019-06-27T05:09:50,42.805,6.029,4330,1995,193.615,59.215,13.292
2019-06-27T05:12:50,42.805,6.029,4330,1995,193.600,59.211,13.292
2019-06-27T05:15:50,42.805,6.029,4330,1995,193.608,59.214,13.292
2019-06-27T05:18:50,42.805,6.029,4330,1995,193.575,59.204,13.293
2019-06-27T05:21:50,42.805,6.029,4330,1995,193.618,59.217,13.293
2019-06-27T05:24:50,42.805,6.029,4330,1995,193.606,59.214,13.293
2019-06-27T05:27:50,42.805,6.029,4330,1995,193.580,59.205,13.292
2019-06-27T05:30:50,42.805,6.029,4330,1995,193.546,59.195,13.292
2019-06-27T05:33:50,42.805,6.029,4330,1995,193.574,59.203,13.292
2019-06-27T05:36:50,42.805,6.029,4330,1995,193.629,59.220,13.292
2019-06-27T05:39:50,42.805,6.029,4330,1995,193.616,59.215,13.291
2019-06-27T05:42:50,42.805,6.029,4330,1995,193.577,59.203,13.291
2019-06-27T05:45:50,42.805,6.029,4330,1995,193.538,59.191,13.291
2019-06-27T05:48:50,42.805,6.029,4330,1995,193.497,59.178,13.291
2019-06-27T05:51:50,42.805,6.029,4330,1995,193.517,59.184,13.291
2019-06-27T05:54:50,42.805,6.029,4330,1995,193.508,59.181,13.290
2019-06-27T05:57:50,42.805,6.029,4330,1995,193.473,59.170,13.291
2019-06-27T06:00:50,42.805,6.029,4330,1995,193.491,59.175,13.290
2019-06-27T06:03:50,42.805,6.029,4330,1995,193.458,59.165,13.290
2019-06-27T06:06:50,42.805,6.029,4330,1995,193.418,59.153,13.291
2019-06-27T06:09:50,42.805,6.029,4330,1995,193.518,59.183,13.290
2019-06-27T06:12:50,42.805,6.029,4330,1995,193.443,59.161,13.290
2019-06-27T06:15:50,42.805,6.029,4330,1995,193.488,59.175,13.290
2019-06-27T06:18:50,42.805,6.029,4330,1995,193.455,59.165,13.291
2019-06-27T06:21:50,42.805,6.029,4330,1995,193.483,59.173,13.290
2019-06-27T06:24:50,42.805,6.029,4330,1995,193.527,59.187,13.291
2019-06-27T06:27:50,42.805,6.029,4330,1995,193.407,59.150,13.291
2019-06-27T06:30:50,42.805,6.029,4330,1995,193.383,59.143,13.291
2019-06-27T06:33:50,42.805,6.029,4330,1995,193.334,59.129,13.291
2019-06-27T06:36:50,42.805,6.029,4330,1995,193.325,59.126,13.291
2019-06-27T06:39:50,42.805,6.029,4330,1995,193.318,59.124,13.291
2019-06-27T06:42:50,42.805,6.029,4330,1995,193.342,59.132,13.292
2019-06-27T06:45:50,42.805,6.029,4330,1995,193.364,59.138,13.292
2019-06-27T06:48:50,42.805,6.029,4330,1995,193.385,59.145,13.292
2019-06-27T06:51:50,42.805,6.029,4330,1995,193.426,59.158,13.292
2019-06-27T06:54:50,42.805,6.029,4330,1995,193.345,59.134,13.293
2019-06-27T06:57:50,42.805,6.029,4330,1995,193.365,59.140,13.293
2019-06-27T07:00:50,42.805,6.029,4330,1995,193.391,59.148,13.293
2019-06-27T07:03:50,42.805,6.029,4330,1995,193.389,59.147,13.293
2019-06-27T07:06:50,42.805,6.029,4330,1995,193.363,59.141,13.294
2019-06-27T07:09:50,42.805,6.029,4330,1995,193.376,59.144,13.294
2019-06-27T07:12:50,42.805,6.029,4330,1995,193.342,59.133,13.293
2019-06-27T07:15:50,42.805,6.029,4330,1995,193.321,59.127,13.293
2019-06-27T07:18:50,42.805,6.029,4330,1995,193.372,59.143,13.293
2019-06-27T07:21:50,42.805,6.029,4330,1995,193.362,59.139,13.293
2019-06-27T07:24:50,42.805,6.029,4330,1995,193.406,59.153,13.293
2019-06-27T07:27:50,42.805,6.029,4330,1995,193.347,59.136,13.294
2019-06-27T07:30:50,42.805,6.029,4330,1995,193.333,59.131,13.293
2019-06-27T07:33:50,42.805,6.029,4330,1995,193.315,59.125,13.293
2019-06-27T07:42:50,42.805,6.029,4330,1995,193.327,59.123,13.288
2019-06-27T07:45:50,42.805,6.029,4330,1995,193.331,59.127,13.291
2019-06-27T07:48:50,42.805,6.029,4330,1995,193.334,59.128,13.291
2019-06-27T07:51:50,42.805,6.029,4330,1995,193.344,59.132,13.291
2019-06-27T07:54:50,42.805,6.029,4330,1995,193.235,59.099,13.292
2019-06-27T07:57:50,42.805,6.029,4330,1995,193.274,59.113,13.293
2019-06-27T08:00:50,42.805,6.029,4330,1995,193.281,59.114,13.293
2019-06-27T08:03:50,42.805,6.029,4330,1995,193.277,59.113,13.293
2019-06-27T08:06:50,42.805,6.029,4330,1995,193.319,59.126,13.293
2019-06-27T08:09:50,42.805,6.029,4330,1995,193.312,59.124,13.293
2019-06-27T08:12:50,42.805,6.029,4330,1995,193.343,59.134,13.293
2019-06-27T08:15:50,42.805,6.029,4330,1995,193.324,59.128,13.293
2019-06-27T08:18:50,42.805,6.029,4330,1995,193.324,59.129,13.294
2019-06-27T08:21:50,42.805,6.029,4330,1995,193.280,59.113,13.292
2019-06-27T08:24:50,42.805,6.029,4330,1995,193.308,59.122,13.293
2019-06-27T08:27:50,42.805,6.029,4330,1995,193.290,59.118,13.293
2019-06-27T08:30:50,42.805,6.029,4330,1995,193.260,59.109,13.293
2019-06-27T08:33:50,42.805,6.029,4330,1995,193.281,59.116,13.294
2019-06-27T08:36:50,42.805,6.029,4330,1995,193.216,59.096,13.294
2019-06-27T08:39:50,42.805,6.029,4330,1995,193.194,59.089,13.294
2019-06-27T08:42:50,42.805,6.029,4330,1995,193.142,59.074,13.294
2019-06-27T08:45:50,42.805,6.029,4330,1995,193.100,59.060,13.293
2019-06-27T08:48:50,42.805,6.029,4330,1995,193.143,59.074,13.294
2019-06-27T08:51:50,42.805,6.029,4330,1995,193.161,59.078,13.293
2019-06-27T08:54:50,42.805,6.029,4330,1995,193.169,59.080,13.293
2019-06-27T08:57:50,42.805,6.029,4330,1995,193.188,59.087,13.294
2019-06-27T09:00:50,42.805,6.029,4330,1995,193.178,59.082,13.292
2019-06-27T09:03:50,42.805,6.029,4330,1995,193.212,59.092,13.292
2019-06-27T09:06:50,42.805,6.029,4330,1995,193.157,59.076,13.292
2019-06-27T09:09:50,42.805,6.029,4330,1995,193.122,59.063,13.291
2019-06-27T09:12:50,42.805,6.029,4330,1995,193.060,59.045,13.292
2019-06-27T09:15:50,42.805,6.029,4330,1995,193.055,59.044,13.292
2019-06-27T09:18:50,42.805,6.029,4330,1995,193.071,59.048,13.291
2019-06-27T09:21:50,42.805,6.029,4330,1995,193.022,59.033,13.291
2019-06-27T09:24:50,42.805,6.029,4330,1995,192.990,59.024,13.292
2019-06-27T09:27:50,42.805,6.029,4330,1995,192.985,59.022,13.291
2019-06-27T09:30:50,42.805,6.029,4330,1995,192.941,59.008,13.291
2019-06-27T09:33:50,42.805,6.029,4330,1995,192.857,58.983,13.292
2019-06-27T09:36:50,42.805,6.029,4330,1995,192.803,58.966,13.291
2019-06-27T09:39:50,42.805,6.029,4330,1995,192.758,58.952,13.291
2019-06-27T09:42:50,42.805,6.029,4330,1995,192.848,58.981,13.292
2019-06-27T09:45:50,42.805,6.029,4330,1995,192.830,58.976,13.293
2019-06-27T09:48:50,42.805,6.029,4330,1995,192.820,58.972,13.291
2019-06-27T09:51:50,42.805,6.029,4330,1995,192.805,58.969,13.293
2019-06-27T09:54:50,42.805,6.029,4330,1995,192.758,58.954,13.292
2019-06-27T09:57:50,42.805,6.029,4330,1995,192.806,58.969,13.293
2019-06-27T10:00:50,42.805,6.029,4330,1995,192.735,58.946,13.292
2019-06-27T10:03:50,42.805,6.029,4330,1995,192.716,58.943,13.294
2019-06-27T10:06:50,42.805,6.029,4330,1995,192.664,58.926,13.293
2019-06-27T10:09:50,42.805,6.029,4330,1995,192.700,58.938,13.294
2019-06-27T10:15:50,42.805,6.029,4330,1995,192.727,58.941,13.290
2019-06-27T10:18:50,42.805,6.029,4330,1995,192.661,58.920,13.290
2019-06-27T10:21:50,42.805,6.029,4330,1995,192.677,58.927,13.291
2019-06-27T10:24:50,42.805,6.029,4330,1995,192.680,58.930,13.292
2019-06-27T10:27:50,42.805,6.029,4330,1995,192.700,58.935,13.291
2019-06-27T10:30:50,42.805,6.029,4330,1995,192.676,58.927,13.291
2019-06-27T10:33:50,42.805,6.029,4330,1995,192.613,58.908,13.291
2019-06-27T10:36:50,42.805,6.029,4330,1995,192.571,58.897,13.292
2019-06-27T10:39:50,42.805,6.029,4330,1995,192.584,58.900,13.292
2019-06-27T10:42:50,42.805,6.029,4330,1995,192.660,58.923,13.292
2019-06-27T10:45:50,42.805,6.029,4330,1995,192.577,58.898,13.292
2019-06-27T10:48:50,42.805,6.029,4330,1995,192.666,58.926,13.292
2019-06-27T10:51:50,42.805,6.029,4330,1995,192.620,58.911,13.292
2019-06-27T10:54:50,42.805,6.029,4330,1995,192.536,58.886,13.292
2019-06-27T10:57:50,42.805,6.029,4330,1995,192.448,58.861,13.294
2019-06-27T11:00:50,42.805,6.029,4330,1995,192.467,58.865,13.293
2019-06-27T11:03:50,42.805,6.029,4330,1995,192.526,58.885,13.294
2019-06-27T11:06:50,42.805,6.029,4330,1995,192.562,58.896,13.294
2019-06-27T11:09:50,42.805,6.029,4330,1995,192.456,58.864,13.294
2019-06-27T11:12:50,42.805,6.029,4330,1995,192.484,58.872,13.294
2019-06-27T11:15:50,42.805,6.029,4330,1995,192.541,58.889,13.293
2019-06-27T11:18:50,42.805,6.029,4330,1995,192.545,58.890,13.293
2019-06-27T11:21:50,42.805,6.029,4330,1995,192.571,58.899,13.294
2019-06-27T11:24:50,42.805,6.029,4330,1995,192.595,58.906,13.294
2019-06-27T11:27:50,42.805,6.029,4330,1995,192.526,58.885,13.294
2019-06-27T11:30:50,42.805,6.029,4330,1995,192.497,58.877,13.295
2019-06-27T11:33:50,42.805,6.029,4330,1995,192.463,58.866,13.294
2019-06-27T11:36:50,42.805,6.029,4330,1995,192.498,58.877,13.295
2019-06-27T11:39:50,42.805,6.029,4330,1995,192.523,58.885,13.294
2019-06-27T11:42:50,42.805,6.029,4330,1995,192.452,58.863,13.294
2019-06-27T11:45:50,42.805,6.029,4330,1995,192.438,58.858,13.294
2019-06-27T11:48:50,42.805,6.029,4330,1995,192.505,58.879,13.294
2019-06-27T11:51:50,42.805,6.029,4330,1995,192.432,58.856,13.294
2019-06-27T11:54:50,42.805,6.029,4330,1995,192.412,58.850,13.294
2019-06-27T11:57:50,42.805,6.029,4330,1995,192.399,58.846,13.294
2019-06-27T12:00:50,42.805,6.029,4330,1995,192.428,58.855,13.294
2019-06-27T12:03:50,42.805,6.029,4330,1995,192.424,58.854,13.294
2019-06-27T12:06:50,42.805,6.029,4330,1995,192.464,58.865,13.293
2019-06-27T12:09:50,42.805,6.029,4330,1995,192.496,58.875,13.294
2019-06-27T12:12:50,42.805,6.029,4330,1995,192.463,58.864,13.293
2019-06-27T12:15:50,42.805,6.029,4330,1995,192.412,58.849,13.293
2019-06-27T12:18:50,42.805,6.029,4330,1995,192.369,58.837,13.294
2019-06-27T12:21:50,42.805,6.029,4330,1995,192.385,58.841,13.293
2019-06-27T12:24:50,42.805,6.029,4330,1995,192.327,58.823,13.293
2019-06-27T12:27:50,42.805,6.029,4330,1995,192.272,58.806,13.293
2019-06-27T12:30:50,42.805,6.029,4330,1995,192.355,58.831,13.293
2019-06-27T12:33:50,42.805,6.029,4330,1995,192.343,58.827,13.292
2019-06-27T12:36:50,42.805,6.029,4330,1995,192.270,58.804,13.292
2019-06-27T12:39:50,42.805,6.029,4330,1995,192.303,58.814,13.292
2019-06-27T12:42:50,42.805,6.029,4330,1995,192.293,58.812,13.292
2019-06-27T12:45:50,42.805,6.029,4330,1995,192.275,58.807,13.293
2019-06-27T12:51:50,42.805,6.029,4330,1995,192.289,58.812,13.293
2019-06-27T12:54:50,42.805,6.029,4330,1995,192.296,58.813,13.293
2019-06-27T12:57:50,42.805,6.029,4330,1995,192.344,58.830,13.295
2019-06-27T13:00:50,42.805,6.029,4330,1995,192.323,58.823,13.294
2019-06-27T13:03:50,42.805,6.029,4330,1995,192.282,58.811,13.295
2019-06-27T13:06:50,42.805,6.029,4330,1995,192.355,58.833,13.294
2019-06-27T13:09:50,42.805,6.029,4330,1995,192.341,58.829,13.294
2019-06-27T13:12:50,42.805,6.029,4330,1995,192.345,58.829,13.294
2019-06-27T13:15:50,42.805,6.029,4330,1995,192.376,58.839,13.294
2019-06-27T13:18:50,42.805,6.029,4330,1995,192.455,58.865,13.295
2019-06-27T13:21:50,42.805,6.029,4330,1995,192.515,58.881,13.293
2019-06-27T13:24:49,42.805,6.029,4330,1995,192.486,58.871,13.293
2019-06-27T13:27:49,42.805,6.029,4330,1995,192.515,58.880,13.293
2019-06-27T13:30:49,42.805,6.029,4330,1995,192.451,58.862,13.294
2019-06-27T13:33:49,42.805,6.029,4330,1995,192.409,58.847,13.292
2019-06-27T13:36:49,42.805,6.029,4330,1995,192.406,58.845,13.292
2019-06-27T13:39:49,42.805,6.029,4330,1995,192.455,58.862,13.293
2019-06-27T13:42:49,42.805,6.029,4330,1995,192.554,58.893,13.293
2019-06-27T13:45:49,42.805,6.029,4330,1995,192.602,58.907,13.293
2019-06-27T13:48:49,42.805,6.029,4330,1995,192.583,58.901,13.293
2019-06-27T13:51:49,42.805,6.029,4330,1995,192.590,58.903,13.293
2019-06-27T13:54:49,42.805,6.029,4330,1995,192.604,58.907,13.292
2019-06-27T13:57:49,42.805,6.029,4330,1995,192.521,58.881,13.292
2019-06-27T14:00:49,42.805,6.029,4330,1995,192.572,58.897,13.292
2019-06-27T14:03:49,42.805,6.029,4330,1995,192.613,58.910,13.293
2019-06-27T14:06:49,42.805,6.029,4330,1995,192.660,58.925,13.293
2019-06-27T14:09:49,42.805,6.029,4330,1995,192.643,58.917,13.292
2019-06-27T14:12:49,42.805,6.029,4330,1995,192.632,58.917,13.294
2019-06-27T14:15:49,42.805,6.029,4330,1995,192.702,58.938,13.294
2019-06-27T14:18:49,42.805,6.029,4330,1995,192.690,58.934,13.293
2019-06-27T14:21:49,42.805,6.029,4330,1995,192.758,58.956,13.294
2019-06-27T14:24:49,42.805,6.029,4330,1995,192.702,58.937,13.293
2019-06-27T14:27:49,42.805,6.029,4330,1995,192.724,58.947,13.295
2019-06-27T14:30:49,42.805,6.029,4330,1995,192.714,58.943,13.294
2019-06-27T14:33:49,42.805,6.029,4330,1995,192.680,58.931,13.294
2019-06-27T14:36:49,42.805,6.029,4330,1995,192.755,58.955,13.294
2019-06-27T14:39:49,42.805,6.029,4330,1995,192.755,58.955,13.294
2019-06-27T14:42:49,42.805,6.029,4330,1995,192.691,58.936,13.294
2019-06-27T14:45:49,42.805,6.029,4330,1995,192.718,58.944,13.294
2019-06-27T14:48:49,42.805,6.029,4330,1995,192.705,58.942,13.296
2019-06-27T14:51:49,42.805,6.029,4330,1995,192.794,58.966,13.293
2019-06-27T14:54:49,42.805,6.029,4330,1995,192.784,58.966,13.295
2019-06-27T14:57:49,42.805,6.029,4330,1995,192.831,58.979,13.294
2019-06-27T15:00:49,42.805,6.029,4330,1995,192.844,58.982,13.294
2019-06-27T15:03:49,42.805,6.029,4330,1995,192.938,59.011,13.294
2019-06-27T15:06:49,42.805,6.029,4330,1995,192.915,59.005,13.294
2019-06-27T15:09:49,42.805,6.029,4330,1995,192.984,59.027,13.295
2019-06-27T15:12:49,42.805,6.029,4330,1995,192.987,59.026,13.294
2019-06-27T15:15:49,42.805,6.029,4330,1995,192.990,59.026,13.294
2019-06-27T15:18:49,42.805,6.029,4330,1995,192.941,59.013,13.294
2019-06-27T15:27:49,42.805,6.029,4330,1995,192.994,59.021,13.289
2019-06-27T15:30:49,42.805,6.029,4330,1995,192.925,59.005,13.292
2019-06-27T15:33:49,42.805,6.029,4330,1995,193.005,59.030,13.293
2019-06-27T15:36:49,42.805,6.029,4330,1995,193.040,59.042,13.294
2019-06-27T15:39:49,42.805,6.029,4330,1995,193.024,59.037,13.294
2019-06-27T15:42:49,42.805,6.029,4330,1995,193.027,59.037,13.293
2019-06-27T15:45:49,42.805,6.029,4330,1995,192.981,59.023,13.293
2019-06-27T15:48:49,42.805,6.029,4330,1995,193.022,59.036,13.293
2019-06-27T15:51:49,42.805,6.029,4330,1995,193.004,59.031,13.294
2019-06-27T15:54:49,42.805,6.029,4330,1995,192.959,59.017,13.294
2019-06-27T15:57:49,42.805,6.029,4330,1995,192.921,59.005,13.293
2019-06-27T16:00:49,42.805,6.029,4330,1995,192.953,59.016,13.295
2019-06-27T16:03:49,42.805,6.029,4330,1995,193.085,59.055,13.293
2019-06-27T16:06:49,42.805,6.029,4330,1995,193.176,59.085,13.295
2019-06-27T16:09:49,42.805,6.029,4330,1995,193.141,59.073,13.294
2019-06-27T16:12:49,42.805,6.029,4330,1995,193.137,59.072,13.294
2019-06-27T16:15:49,42.805,6.029,4330,1995,193.155,59.076,13.293
2019-06-27T16:18:49,42.805,6.029,4330,1995,193.097,59.060,13.295
2019-06-27T16:21:49,42.805,6.029,4330,1995,193.127,59.068,13.294
2019-06-27T16:24:49,42.805,6.029,4330,1995,193.096,59.059,13.294
2019-06-27T16:27:49,42.805,6.029,4330,1995,193.103,59.062,13.295
2019-06-27T16:30:49,42.805,6.029,4330,1995,193.110,59.064,13.294
2019-06-27T16:33:49,42.805,6.029,4330,1995,193.119,59.065,13.293
2019-06-27T16:36:49,42.805,6.029,4330,1995,193.128,59.068,13.293
2019-06-27T16:39:49,42.805,6.029,4330,1995,193.085,59.055,13.294
2019-06-27T16:42:49,42.805,6.029,4330,1995,193.135,59.068,13.292
2019-06-27T16:45:49,42.805,6.029,4330,1995,193.130,59.069,13.293
2019-06-27T16:48:49,42.805,6.029,4330,1995,193.083,59.054,13.293
2019-06-27T16:51:49,42.805,6.029,4330,1995,193.079,59.051,13.292
2019-06-27T16:54:49,42.805,6.029,4330,1995,193.069,59.049,13.292
2019-06-27T16:57:49,42.805,6.029,4330,1995,193.183,59.084,13.292
2019-06-27T17:00:49,42.805,6.029,4330,1995,193.062,59.045,13.291
2019-06-27T17:03:49,42.805,6.029,4330,1995,193.099,59.057,13.291
2019-06-27T17:06:49,42.805,6.029,4330,1995,193.110,59.060,13.291
2019-06-27T17:09:49,42.805,6.029,4330,1995,193.069,59.048,13.291
2019-06-27T17:12:49,42.805,6.029,4330,1995,193.058,59.045,13.292
2019-06-27T17:15:49,42.805,6.029,4330,1995,193.085,59.053,13.292
2019-06-27T17:18:49,42.805,6.029,4330,1995,193.150,59.073,13.291
2019-06-27T17:21:49,42.805,6.029,4330,1995,193.280,59.112,13.291
2019-06-27T17:24:49,42.805,6.029,4330,1995,193.221,59.094,13.292
2019-06-27T17:27:49,42.805,6.029,4330,1995,193.197,59.088,13.292
2019-06-27T17:30:49,42.805,6.029,4330,1995,193.245,59.102,13.292
2019-06-27T17:33:49,42.805,6.029,4330,1995,193.135,59.069,13.292
2019-06-27T17:36:49,42.805,6.029,4330,1995,193.159,59.076,13.292
2019-06-27T17:39:49,42.805,6.029,4330,1995,193.178,59.081,13.292
2019-06-27T17:42:49,42.805,6.029,4330,1995,193.153,59.074,13.292
2019-06-27T17:45:49,42.805,6.029,4330,1995,193.162,59.078,13.293
2019-06-27T17:48:49,42.805,6.029,4330,1995,193.125,59.065,13.292
2019-06-27T17:51:49,42.805,6.029,4330,1995,193.200,59.088,13.292
2019-06-27T17:54:49,42.805,6.029,4330,1995,193.141,59.070,13.292
2019-06-27T18:00:49,42.805,6.029,4330,1995,193.262,59.104,13.289
2019-06-27T18:03:49,42.805,6.029,4330,1995,193.264,59.105,13.289
2019-06-27T18:06:49,42.805,6.029,4330,1995,193.221,59.094,13.291
2019-06-27T18:09:49,42.805,6.029,4330,1995,193.209,59.089,13.291
2019-06-27T18:12:49,42.805,6.029,4330,1995,193.118,59.063,13.291
2019-06-27T18:15:49,42.805,6.029,4330,1995,193.188,59.084,13.291
2019-06-27T18:18:49,42.805,6.029,4330,1995,193.137,59.067,13.291
2019-06-27T18:21:49,42.805,6.029,4330,1995,193.198,59.087,13.291
2019-06-27T18:24:49,42.805,6.029,4330,1995,193.172,59.078,13.290
2019-06-27T18:27:49,42.805,6.029,4330,1995,193.173,59.079,13.291
2019-06-27T18:30:49,42.805,6.029,4330,1995,193.130,59.067,13.292
2019-06-27T18:33:49,42.805,6.029,4330,1995,193.244,59.102,13.292